Wind_Speed
23 21 19 17 16 15 14 12 11 10 8 7 5 3 2 2 3 4 4 4 5 6 7 7 7 7 7 8 9 8 7 7 7 7 7 7 6 6 6 6 5 4 4 4
25 24 22 20 18 17 15 14 13 11 10 8 7 6 5 4 3 3 3 3 4 5 6 6 7 7 8 8 8 9 8 9 9 8 8 7 7 7 7 6 6 5 5 4
27 26 25 22 20 19 17 16 15 14 12 11 9 7 7 5 4 4 4 4 4 4 5 6 7 7 8 9 9 9 9 9 10 9 8 8 8 8 8 8 7 7 6 6
30 28 26 25 23 21 20 19 18 16 14 13 11 9 9 7 6 5 5 5 5 4 5 6 7 8 8 8 9 9 9 9 9 8 8 8 8 9 9 9 8 8 7 7
32 30 28 27 25 24 23 21 19 18 16 14 13 11 11 10 8 7 6 6 5 5 5 7 7 7 8 9 9 9 9 9 8 8 8 8 9 9 10 10 10 9 8 8
34 32 31 30 28 27 25 23 21 20 18 18 16 13 12 11 9 8 8 7 6 5 6 7 7 8 9 9 9 8 10 10 9 8 9 9 9 10 10 10 10 9 9 8
35 34 33 32 31 30 28 25 23 22 22 20 18 15 14 12 10 10 9 8 8 8 8 8 8 8 9 10 9 9 9 10 10 9 10 10 10 11 11 11 11 10 10 10
35 35 34 33 32 30 28 27 25 22 20 20 20 17 15 13 12 11 10 9 9 9 9 9 9 10 10 10 10 9 10 11 11 11 11 11 11 12 12 12 12 11 11 11
35 35 34 33 33 32 30 30 26 24 22 20 20 18 16 15 14 12 11 11 10 10 10 10 10 11 11 11 11 11 11 11 12 12 12 12 12 12 13 14 13 12 11 11
37 36 36 34 34 34 32 30 29 27 24 21 20 19 17 17 16 14 12 12 11 11 11 11 11 11 12 12 11 12 12 13 12 12 12 13 12 13 14 14 12 12 12 11
37 37 36 36 35 34 33 32 31 29 27 22 20 19 18 18 16 15 14 13 12 12 12 12 12 12 12 12 13 13 13 14 13 13 13 12 12 13 14 13 12 11 10 10
37 37 36 36 36 35 34 34 32 30 29 26 21 19 20 18 17 16 15 14 14 13 13 13 13 13 13 13 14 14 14 14 14 15 14 13 13 14 13 12 12 12 11 11
37 37 36 36 37 37 36 35 33 31 29 27 23 21 21 19 18 17 16 16 15 15 14 13 14 14 14 14 14 15 15 15 15 15 14 14 14 13 12 12 12 13 12 11
36 36 36 34 33 34 35 34 33 32 30 28 25 22 22 20 19 18 18 18 17 16 16 16 16 16 16 15 16 16 16 16 16 15 14 14 14 13 13 12 13 13 12 12
35 35 35 34 33 33 33 34 33 32 30 29 26 24 23 21 20 19 19 19 18 18 18 17 17 17 17 16 16 17 16 17 17 15 15 15 14 13 13 14 13 13 13 14
34 34 34 34 33 32 33 34 33 33 31 30 28 26 24 23 22 21 20 20 19 19 18 18 18 18 17 17 17 17 16 16 16 16 15 14 13 14 14 14 14 14 14 15
33 32 32 31 32 32 34 33 33 32 31 30 29 27 26 24 23 22 21 21 21 20 20 19 19 19 18 18 18 18 17 17 16 15 14 13 13 14 15 15 16 16 16 16
33 32 31 29 31 32 32 31 31 31 30 29 29 27 26 25 24 23 22 22 21 21 20 20 20 19 19 19 18 18 18 17 17 16 15 15 15 16 16 17 17 18 18 18
32 31 31 30 29 30 31 30 30 29 29 28 27 26 25 24 24 23 23 23 23 23 21 20 20 19 19 19 18 18 18 18 17 16 16 16 17 17 17 18 18 18 19 19
31 31 31 31 28 29 30 29 29 28 28 28 27 25 25 24 23 23 22 22 22 22 21 20 20 20 20 20 19 18 18 17 17 17 17 18 18 18 18 19 19 19 20 20
31 31 31 31 28 28 29 29 28 28 28 27 26 25 24 24 23 21 21 21 22 21 21 21 21 20 20 19 19 18 18 18 18 18 18 19 19 19 19 19 19 19 19 20
30 30 31 30 28 28 29 29 29 28 27 26 25 25 24 24 23 22 22 22 22 21 22 21 21 20 19 19 19 19 19 19 18 18 18 19 19 20 20 19 19 19 20 21
30 30 30 30 28 28 27 27 28 28 27 26 26 25 24 24 24 23 22 22 22 22 22 22 21 20 19 19 20 20 19 19 20 19 19 19 19 19 19 19 19 20 21 21
29 29 29 29 27 26 25 25 27 27 27 27 26 26 25 24 24 23 23 22 22 23 23 22 21 21 21 21 20 20 20 21 20 20 20 20 20 20 20 21 21 21 21 21
29 29 28 28 27 25 25 26 26 27 27 26 27 27 26 25 25 25 24 24 23 23 23 22 22 21 21 20 20 20 20 20 20 21 21 21 21 21 21 22 22 21 21 21
30 29 28 27 26 26 25 26 26 26 26 26 26 27 26 26 25 25 24 24 23 23 23 23 22 21 20 20 20 21 22 21 21 21 21 21 22 21 21 22 22 22 22 23
Wind_Direction
222 221 220 218 215 216 218 219 226 232 225 220 224 233 265 309 348 355 1 4 2 6 9 12 13 14 10 7 10 8 6 7 6 9 10 8 7 6 7 11 8 1 351 343
222 222 221 221 220 221 223 224 229 235 232 232 237 245 259 270 299 322 333 342 348 355 3 3 7 7 6 3 5 6 5 5 5 2 3 1 359 357 357 355 349 348 346 335
223 223 222 223 223 224 225 227 232 239 239 239 244 253 254 259 270 289 308 311 317 333 343 347 351 355 358 358 358 358 359 355 354 355 353 353 352 352 347 342 338 337 340 335
222 223 223 224 224 225 227 228 232 237 239 243 240 249 256 252 257 270 287 301 302 316 324 326 336 344 347 347 348 349 348 346 343 347 349 348 348 349 348 342 337 329 324 324
224 224 224 225 225 226 229 230 232 236 238 242 247 243 252 251 250 255 267 280 292 300 314 319 329 336 335 335 338 339 340 338 338 342 343 340 340 342 344 344 339 329 320 315
224 223 224 225 226 228 229 230 232 235 238 242 246 244 245 248 244 248 254 262 273 286 298 313 319 324 329 334 335 335 338 336 333 336 339 336 332 332 333 333 331 328 324 318
225 224 224 225 226 228 228 227 230 233 236 241 245 244 242 243 244 244 248 255 262 273 284 298 308 314 318 321 322 322 327 331 328 326 331 330 326 324 324 324 323 319 317 315
225 225 225 225 226 228 227 227 226 230 238 242 246 244 242 242 244 246 250 252 257 264 278 289 296 304 308 310 311 315 317 320 325 323 323 323 323 321 322 323 321 315 308 306
223 226 225 225 225 225 225 225 226 231 233 236 246 246 241 241 242 245 249 250 256 264 274 282 288 296 296 298 303 308 309 315 316 315 317 320 319 321 321 320 317 315 310 304
222 225 225 225 225 225 226 226 226 227 231 235 244 245 241 242 244 246 248 249 254 263 272 278 283 287 290 294 297 304 308 311 309 307 308 312 316 319 321 323 320 314 311 306
222 224 225 225 225 226 226 226 228 230 232 233 241 247 242 242 242 244 248 249 252 259 266 275 280 284 290 293 294 299 304 306 308 306 305 307 311 312 314 316 318 317 315 316
221 222 225 225 225 226 227 228 230 231 235 234 233 246 245 240 241 244 246 247 249 255 263 272 276 281 288 291 292 295 300 303 307 304 302 302 306 306 306 308 311 309 311 313
220 221 223 224 225 225 227 227 228 230 234 236 234 239 245 241 241 243 243 244 247 254 261 268 273 278 284 287 288 291 296 301 304 303 300 299 302 303 303 301 304 304 306 308
219 221 221 224 228 227 227 228 228 229 231 236 234 235 243 240 240 241 242 245 248 254 260 267 269 273 278 282 285 288 293 299 301 300 299 299 299 300 301 299 298 300 301 303
219 220 220 221 224 226 227 228 229 230 231 234 237 235 238 239 239 239 241 244 248 252 257 265 267 269 274 280 285 286 291 297 300 299 298 298 298 299 299 298 296 296 299 300
217 219 220 222 224 226 226 226 227 229 231 233 235 236 234 237 238 237 240 243 247 249 255 263 265 267 272 277 281 285 289 293 298 301 300 298 295 297 297 298 300 300 300 299
216 217 219 222 224 226 227 226 227 228 230 232 234 236 236 236 235 235 238 242 245 248 252 258 264 266 270 273 278 282 285 288 293 296 296 298 298 300 299 299 299 300 301 300
214 215 217 220 223 224 226 225 226 228 229 230 232 234 236 235 233 233 235 239 242 246 251 257 262 265 268 272 276 280 282 285 288 289 291 294 295 299 299 298 298 300 301 301
212 213 214 216 222 225 226 225 225 226 228 229 230 232 234 235 234 233 234 237 241 245 250 254 258 263 268 271 275 278 279 281 284 287 289 294 297 299 301 299 297 298 300 299
210 210 212 215 217 224 225 224 224 224 227 227 229 230 232 233 232 234 236 239 242 244 248 251 256 261 265 269 272 273 276 278 280 282 286 291 296 299 300 301 298 300 302 302
208 209 211 214 217 224 224 222 222 223 226 227 230 231 231 231 232 235 235 236 239 242 245 249 254 259 262 265 268 271 274 277 278 282 286 290 293 297 300 300 299 300 302 302
209 211 211 213 216 225 223 221 221 224 225 226 229 230 230 231 231 232 233 234 238 242 245 249 253 257 259 263 267 269 273 275 278 283 286 288 291 294 297 297 298 299 301 303
209 211 212 214 217 222 223 223 223 223 224 225 227 228 230 231 231 230 231 233 238 242 246 249 252 256 260 265 267 269 271 273 278 281 285 288 289 291 294 296 296 298 301 302
210 211 213 217 219 221 223 223 224 224 224 224 225 227 229 230 229 229 230 233 237 241 246 251 254 256 260 265 266 267 270 274 275 279 284 287 289 291 292 294 295 297 299 300
208 209 212 216 217 219 223 224 223 223 224 224 225 225 227 228 230 231 232 235 238 243 246 251 254 258 260 263 266 269 271 273 275 280 284 287 289 290 291 293 294 295 296 298
208 210 211 214 216 220 222 222 222 223 224 224 224 224 226 228 230 232 233 236 240 244 247 250 252 255 257 261 265 269 272 274 278 281 282 286 288 290 291 293 294 293 294 295
Height
5911 5916 5918 5922 5925 5928 5929 5931 5933 5933 5934 5935 5935 5936 5936 5935 5934 5933 5932 5931 5931 5930 5929 5928 5927 5925 5924 5923 5921 5920 5919 5918 5917 5916 5914 5913 5912 5911 5910 5909 5908 5907 5906 5906
5908 5912 5915 5917 5920 5923 5926 5928 5930 5931 5932 5933 5934 5935 5935 5934 5934 5933 5932 5931 5931 5930 5929 5928 5927 5926 5925 5923 5922 5921 5920 5919 5918 5916 5915 5914 5913 5912 5911 5909 5908 5907 5906 5905
5904 5908 5910 5914 5917 5920 5923 5925 5927 5929 5930 5932 5933 5934 5934 5934 5933 5933 5932 5931 5931 5930 5930 5929 5928 5926 5925 5924 5923 5922 5921 5920 5918 5917 5915 5914 5913 5912 5910 5909 5908 5907 5906 5905
5897 5901 5906 5909 5913 5916 5919 5922 5924 5926 5928 5930 5932 5934 5933 5933 5932 5932 5932 5931 5931 5930 5930 5929 5928 5927 5925 5924 5923 5922 5921 5919 5918 5917 5916 5914 5913 5911 5910 5909 5908 5907 5906 5904
5892 5897 5901 5904 5909 5912 5915 5918 5920 5923 5925 5928 5929 5932 5933 5931 5931 5931 5931 5931 5930 5930 5929 5928 5927 5926 5925 5924 5922 5921 5920 5919 5918 5917 5915 5914 5913 5911 5910 5909 5907 5906 5905 5904
5886 5891 5895 5899 5903 5907 5910 5914 5916 5919 5922 5924 5926 5928 5930 5929 5929 5930 5930 5929 5929 5929 5928 5928 5927 5926 5925 5923 5922 5921 5920 5918 5917 5916 5915 5914 5912 5911 5909 5908 5906 5905 5904 5902
5880 5884 5889 5893 5897 5901 5905 5910 5913 5915 5918 5921 5922 5924 5927 5926 5927 5927 5928 5928 5928 5928 5927 5927 5926 5925 5924 5923 5922 5921 5920 5918 5917 5916 5914 5913 5912 5910 5908 5906 5905 5903 5902 5901
5874 5879 5883 5888 5892 5896 5901 5905 5910 5914 5916 5918 5918 5920 5923 5923 5924 5925 5925 5925 5926 5926 5926 5925 5925 5924 5923 5922 5921 5920 5919 5918 5916 5915 5913 5912 5910 5908 5906 5905 5903 5901 5900 5899
5868 5873 5877 5882 5886 5891 5895 5899 5905 5909 5911 5914 5915 5916 5918 5919 5920 5922 5922 5923 5923 5924 5924 5923 5923 5922 5921 5920 5919 5919 5917 5916 5915 5913 5912 5910 5908 5906 5904 5903 5901 5899 5898 5897
5861 5866 5870 5875 5880 5884 5889 5894 5898 5902 5905 5909 5911 5912 5915 5915 5917 5918 5919 5920 5921 5921 5921 5921 5921 5920 5920 5918 5917 5917 5915 5914 5913 5911 5910 5908 5906 5904 5903 5901 5899 5897 5896 5894
5854 5859 5864 5869 5873 5878 5883 5888 5892 5897 5900 5905 5909 5911 5911 5912 5913 5915 5916 5917 5918 5919 5919 5919 5918 5918 5917 5916 5915 5914 5913 5911 5910 5909 5907 5906 5904 5902 5900 5898 5897 5895 5894 5892
5847 5853 5857 5863 5868 5872 5877 5882 5887 5891 5894 5898 5904 5909 5905 5907 5909 5911 5912 5913 5915 5916 5916 5916 5916 5915 5915 5914 5913 5911 5910 5909 5907 5906 5904 5903 5901 5900 5898 5896 5895 5893 5892 5890
5840 5846 5851 5855 5861 5865 5870 5875 5880 5885 5889 5892 5898 5904 5900 5903 5905 5907 5908 5910 5911 5912 5913 5913 5913 5913 5912 5911 5910 5909 5907 5906 5904 5902 5901 5899 5898 5897 5895 5894 5892 5891 5890 5888
5833 5839 5846 5852 5855 5859 5864 5869 5874 5878 5882 5887 5892 5896 5896 5898 5901 5902 5904 5906 5907 5908 5909 5909 5909 5909 5909 5908 5907 5906 5905 5903 5901 5899 5898 5896 5895 5894 5893 5891 5890 5888 5887 5886
5827 5833 5838 5844 5848 5853 5858 5863 5868 5872 5877 5882 5886 5889 5891 5893 5896 5898 5900 5901 5903 5904 5905 5906 5906 5906 5905 5905 5904 5903 5902 5900 5898 5896 5895 5893 5892 5891 5890 5888 5887 5886 5884 5883
5821 5827 5832 5837 5842 5847 5851 5856 5861 5866 5871 5875 5879 5882 5886 5888 5891 5893 5895 5897 5899 5900 5901 5901 5902 5902 5901 5901 5901 5900 5898 5897 5896 5894 5891 5889 5889 5888 5887 5885 5884 5882 5881 5880
5816 5822 5827 5832 5837 5841 5845 5850 5855 5860 5864 5869 5873 5877 5879 5882 5885 5888 5890 5892 5894 5895 5896 5897 5897 5897 5897 5897 5897 5896 5895 5894 5892 5891 5889 5887 5886 5885 5884 5882 5881 5879 5878 5876
5810 5816 5822 5827 5831 5836 5842 5845 5850 5854 5858 5863 5867 5870 5873 5877 5880 5882 5885 5887 5889 5890 5891 5892 5893 5893 5893 5893 5893 5892 5891 5890 5889 5887 5886 5885 5884 5882 5880 5879 5877 5875 5874 5872
5805 5811 5816 5822 5826 5830 5835 5839 5844 5849 5853 5857 5861 5864 5868 5870 5874 5877 5879 5881 5883 5885 5886 5887 5888 5888 5888 5888 5888 5888 5887 5886 5885 5884 5883 5882 5880 5879 5877 5875 5873 5871 5870 5868
5800 5805 5811 5816 5821 5825 5830 5834 5839 5844 5847 5851 5855 5859 5862 5865 5869 5871 5874 5876 5878 5880 5881 5882 5883 5883 5884 5884 5883 5883 5882 5882 5881 5880 5879 5878 5877 5875 5873 5871 5869 5867 5866 5864
5795 5799 5805 5810 5816 5820 5824 5828 5833 5839 5843 5846 5849 5853 5857 5860 5863 5866 5868 5870 5872 5874 5876 5877 5878 5879 5879 5879 5878 5878 5878 5877 5876 5876 5875 5874 5872 5871 5869 5867 5865 5863 5861 5860
5790 5795 5800 5805 5811 5816 5818 5823 5828 5832 5836 5840 5844 5848 5851 5854 5857 5860 5863 5865 5867 5869 5871 5872 5873 5873 5874 5874 5874 5873 5873 5872 5871 5870 5870 5869 5868 5866 5864 5862 5860 5859 5857 5855
5785 5791 5796 5801 5807 5809 5813 5817 5822 5826 5830 5835 5838 5842 5846 5849 5852 5855 5858 5860 5862 5864 5865 5866 5867 5868 5868 5868 5868 5868 5868 5867 5867 5866 5865 5864 5863 5861 5859 5858 5856 5854 5852 5850
5780 5786 5791 5796 5800 5804 5808 5812 5816 5820 5825 5829 5833 5837 5840 5844 5847 5850 5852 5855 5856 5858 5859 5861 5861 5862 5863 5863 5863 5863 5863 5862 5861 5861 5860 5859 5858 5856 5854 5853 5851 5849 5847 5845
5775 5781 5785 5790 5795 5799 5803 5807 5811 5815 5819 5823 5827 5830 5834 5838 5841 5844 5846 5849 5851 5852 5854 5855 5856 5856 5857 5857 5857 5857 5857 5857 5856 5856 5855 5853 5852 5851 5849 5847 5845 5844 5842 5840
5770 5776 5781 5785 5790 5794 5798 5801 5805 5809 5813 5817 5821 5825 5828 5832 5835 5838 5840 5843 5845 5846 5848 5849 5850 5851 5851 5851 5852 5852 5852 5851 5851 5850 5849 5848 5846 5845 5843 5841 5840 5838 5837 5835